Location: Buchberg
(46.9333°N, 15.8500°E)
Time: 03:05:08
(UTC+00:00)

Tsikada Rocket - Pass Details

Date: 14 July 2020
Orbit: 959 x 1008 km, 82.9° (Epoch: 11 August)

Event Time Altitude Azimuth Distance (km) Brightness Sun altitude
Rises 01:30:44 0° 347° (NNW) 3,746 7.7 -13.7°
Reaches altitude 10° 01:33:20 10° 343° (NNW) 2,795 6.9 -13.5°
Maximum altitude 01:39:33 54° 268° (W) 1,210 4.3 -12.8°
Enters shadow 01:45:06 13° 195° (SSW) 2,550 5.6 -12.3°
